When you browse on this site, cookies collect data to enhance your experience and personalize the content and advertising you see.
Visit our Privacy Policy to learn more. By continuing to use the site, you agree to this use of cookies and data.
  • In Romania
  • List of Countries
  • For 7 days
  • Water Temperature
  • Weather Map
  • Weather Widgets
  • user-avatar
    Login

    Hourly Weather Prutz

    Today, 26 February, Wednesday

    Time Temperature Precipitation Wind Pressure Humidity
    00:00 -2°C° 0.6 mm 2 mps 620 mmHg 94%
    01:00 -2°C° 0.6 mm 2 mps 620 mmHg 94%
    02:00 -3°C° 1.2 mm 2 mps 619 mmHg 94%
    03:00 -4°C° 1.2 mm 2 mps 619 mmHg 95%
    04:00 -4°C° 1.2 mm 2 mps 618 mmHg 95%
    05:00 -5°C° 0.7 mm 2 mps 618 mmHg 95%
    06:00 -5°C° 0.7 mm 2 mps 618 mmHg 94%
    07:00 -7°C° 0.7 mm 3 mps 617 mmHg 93%
    08:00 -6°C° 0.2 mm 2 mps 617 mmHg 86%
    09:00 -5°C° 0.2 mm 2 mps 617 mmHg 78%
    10:00 -5°C° 0.2 mm 2 mps 617 mmHg 71%
    11:00 -6°C° 0.2 mm 3 mps 617 mmHg 70%
    12:00 -5°C° 0.2 mm 4 mps 618 mmHg 70%
    13:00 -6°C° 0.2 mm 5 mps 618 mmHg 70%
    14:00 -7°C° 0.3 mm 4 mps 618 mmHg 71%
    15:00 -8°C° 0.3 mm 4 mps 618 mmHg 73%
    16:00 -7°C° 0.3 mm 3 mps 618 mmHg 74%
    17:00 -8°C° 0.6 mm 3 mps 619 mmHg 81%
    18:00 -9°C° 0.6 mm 3 mps 620 mmHg 87%
    19:00 -9°C° 0.6 mm 2 mps 620 mmHg 93%
    20:00 -9°C° 0.4 mm 2 mps 621 mmHg 94%
    21:00 -9°C° 0.4 mm 2 mps 621 mmHg 94%
    22:00 -10°C° 0.4 mm 2 mps 622 mmHg 95%
    23:00 -10°C° 0.4 mm 2 mps 622 mmHg 95%

    Tomorrow, 27 February, Thursday

    Time Temperature Precipitation Wind Pressure Humidity
    00:00 -9°C° 0.4 mm 1 mps 623 mmHg 95%
    01:00 -9°C° 0.4 mm 1 mps 623 mmHg 95%
    02:00 -9°C° 0.2 mm 1 mps 623 mmHg 95%
    03:00 -10°C° 0.2 mm 1 mps 623 mmHg 94%
    04:00 -10°C° 0.2 mm 1 mps 623 mmHg 94%
    05:00 -13°C° 0.1 mm 2 mps 623 mmHg 93%
    06:00 -13°C° 0.1 mm 2 mps 623 mmHg 92%
    07:00 -13°C° 0.1 mm 2 mps 624 mmHg 91%
    08:00 -10°C° 0 mm 2 mps 624 mmHg 83%
    09:00 -8°C° 0 mm 2 mps 624 mmHg 76%
    10:00 -7°C° 0 mm 2 mps 625 mmHg 68%
    11:00 -7°C° 0 mm 3 mps 624 mmHg 65%
    12:00 -6°C° 0 mm 3 mps 624 mmHg 63%
    13:00 -5°C° 0 mm 4 mps 623 mmHg 60%
    14:00 -5°C° 0.3 mm 4 mps 622 mmHg 67%
    15:00 -7°C° 0.3 mm 5 mps 621 mmHg 73%
    16:00 -7°C° 0.3 mm 5 mps 620 mmHg 80%
    17:00 -8°C° 0.7 mm 5 mps 620 mmHg 83%
    18:00 -8°C° 0.7 mm 5 mps 620 mmHg 85%
    19:00 -10°C° 0.7 mm 5 mps 619 mmHg 88%
    20:00 -10°C° 0.3 mm 5 mps 620 mmHg 88%
    21:00 -9°C° 0.3 mm 4 mps 620 mmHg 89%
    22:00 -9°C° 0.3 mm 4 mps 620 mmHg 89%
    23:00 -9°C° 0.8 mm 4 mps 621 mmHg 91%

    Day after tomorrow, 28 February, Friday

    Time Temperature Precipitation Wind Pressure Humidity
    00:00 -9°C° 0.8 mm 4 mps 622 mmHg 92%
    01:00 -9°C° 0.8 mm 4 mps 623 mmHg 94%
    02:00 -8°C° 0.4 mm 3 mps 623 mmHg 94%
    03:00 -9°C° 0.4 mm 3 mps 624 mmHg 94%
    04:00 -10°C° 0.4 mm 3 mps 624 mmHg 95%
    05:00 -12°C° 0.2 mm 3 mps 625 mmHg 94%
    06:00 -10°C° 0.2 mm 2 mps 625 mmHg 94%
    07:00 -12°C° 0.2 mm 2 mps 626 mmHg 94%
    08:00 -9°C° 0 mm 2 mps 627 mmHg 87%
    09:00 -8°C° 0 mm 2 mps 628 mmHg 81%
    10:00 -6°C° 0 mm 2 mps 629 mmHg 74%
    11:00 -5°C° 0 mm 2 mps 629 mmHg 66%
    12:00 -4°C° 0 mm 2 mps 629 mmHg 58%
    13:00 -1°C° 0 mm 1 mps 629 mmHg 51%
    14:00 -1°C° 0 mm 1 mps 629 mmHg 53%
    15:00 0°C° 0 mm 1 mps 629 mmHg 54%
    16:00 0°C° 0 mm 1 mps 629 mmHg 56%
    17:00 0°C° 0 mm 1 mps 629 mmHg 61%
    18:00 -1°C° 0 mm 1 mps 629 mmHg 65%
    19:00 -4°C° 0 mm 2 mps 628 mmHg 69%
    20:00 -4°C° 0.1 mm 2 mps 629 mmHg 74%
    21:00 -4°C° 0.1 mm 2 mps 629 mmHg 79%
    22:00 -3°C° 0.1 mm 2 mps 629 mmHg 84%
    23:00 -3°C° 0.1 mm 2 mps 629 mmHg 82%

    29 February, Saturday

    Time Temperature Precipitation Wind Pressure Humidity
    00:00 -3°C° 0.1 mm 2 mps 628 mmHg 80%
    01:00 -4°C° 0.1 mm 2 mps 628 mmHg 77%
    02:00 -3°C° 0.1 mm 2 mps 628 mmHg 76%
    03:00 -3°C° 0.1 mm 2 mps 627 mmHg 75%
    04:00 -3°C° 0.1 mm 2 mps 627 mmHg 74%
    05:00 -3°C° 0 mm 2 mps 627 mmHg 73%
    06:00 -3°C° 0 mm 2 mps 626 mmHg 72%
    07:00 -4°C° 0 mm 2 mps 626 mmHg 70%
    08:00 -2°C° 0 mm 2 mps 626 mmHg 73%
    09:00 +1°C° 0 mm 2 mps 626 mmHg 76%
    10:00 +1°C° 0 mm 3 mps 626 mmHg 79%
    11:00 +2°C° 0 mm 3 mps 626 mmHg 81%
    12:00 +2°C° 0 mm 3 mps 625 mmHg 84%
    13:00 +2°C° 0 mm 3 mps 625 mmHg 86%
    14:00 +2°C° 0 mm 3 mps 624 mmHg 85%
    15:00 +1°C° 0 mm 4 mps 623 mmHg 84%
    16:00 0°C° 0 mm 4 mps 623 mmHg 83%
    17:00 -2°C° 0 mm 4 mps 623 mmHg 83%
    18:00 -3°C° 0 mm 4 mps 622 mmHg 83%
    19:00 -5°C° 0 mm 4 mps 622 mmHg 84%
    20:00 -5°C° 0 mm 4 mps 622 mmHg 84%
    21:00 -5°C° 0 mm 4 mps 622 mmHg 84%
    22:00 -5°C° 0 mm 3 mps 623 mmHg 85%
    23:00 -5°C° 0.1 mm 3 mps 622 mmHg 87%

    1 March, Sunday

    Time Temperature Precipitation Wind Pressure Humidity
    00:00 -4°C° 0.1 mm 2 mps 622 mmHg 89%
    01:00 -2°C° 0.1 mm 1 mps 622 mmHg 92%
    02:00 -2°C° 0.4 mm 1 mps 622 mmHg 93%
    03:00 -2°C° 0.4 mm 1 mps 622 mmHg 94%
    04:00 -3°C° 0.4 mm 0 mps 621 mmHg 95%
    05:00 -3°C° 0.7 mm 0 mps 621 mmHg 96%
    06:00 -3°C° 0.7 mm 0 mps 621 mmHg 96%
    07:00 -3°C° 0.7 mm 0 mps 621 mmHg 97%
    08:00 -2°C° 0.5 mm 0 mps 621 mmHg 95%
    09:00 0°C° 0.5 mm 1 mps 622 mmHg 94%
    10:00 0°C° 0.5 mm 1 mps 622 mmHg 93%
    11:00 +1°C° 0.1 mm 1 mps 622 mmHg 92%
    12:00 +2°C° 0.1 mm 1 mps 622 mmHg 91%
    13:00 +2°C° 0.1 mm 1 mps 621 mmHg 90%
    14:00 +2°C° 0 mm 1 mps 621 mmHg 88%
    15:00 +3°C° 0 mm 1 mps 621 mmHg 85%
    16:00 +3°C° 0 mm 1 mps 621 mmHg 82%
    17:00 +1°C° 0 mm 2 mps 620 mmHg 84%
    18:00 -1°C° 0 mm 3 mps 619 mmHg 85%
    19:00 -4°C° 0 mm 4 mps 619 mmHg 87%
    20:00 -4°C° 0 mm 4 mps 619 mmHg 87%
    21:00 -4°C° 0 mm 4 mps 619 mmHg 87%
    22:00 -4°C° 0 mm 4 mps 619 mmHg 87%
    23:00 -5°C° 0.4 mm 3 mps 619 mmHg 88%

    2 March, Monday

    Time Temperature Precipitation Wind Pressure Humidity
    00:00 -4°C° 0.4 mm 2 mps 620 mmHg 90%
    01:00 -4°C° 0.4 mm 2 mps 620 mmHg 92%
    02:00 -4°C° 0.1 mm 2 mps 619 mmHg 90%
    03:00 -4°C° 0.1 mm 2 mps 619 mmHg 89%
    04:00 -6°C° 0.1 mm 3 mps 619 mmHg 88%
    05:00 -6°C° 0 mm 3 mps 618 mmHg 86%
    06:00 -7°C° 0 mm 4 mps 618 mmHg 84%
    07:00 -8°C° 0 mm 4 mps 618 mmHg 83%
    08:00 -5°C° 0 mm 4 mps 618 mmHg 83%
    09:00 -2°C° 0 mm 3 mps 619 mmHg 84%
    10:00 -1°C° 0 mm 3 mps 620 mmHg 84%
    11:00 +1°C° 0.1 mm 2 mps 620 mmHg 86%
    12:00 +1°C° 0.1 mm 2 mps 620 mmHg 87%
    13:00 +2°C° 0.1 mm 2 mps 619 mmHg 88%
    14:00 +3°C° 0.1 mm 1 mps 619 mmHg 89%
    15:00 +3°C° 0.1 mm 1 mps 618 mmHg 90%
    16:00 +3°C° 0.1 mm 1 mps 618 mmHg 92%
    17:00 +2°C° 0.3 mm 1 mps 617 mmHg 93%
    18:00 +1°C° 0.3 mm 1 mps 617 mmHg 95%
    19:00 +1°C° 0.3 mm 1 mps 617 mmHg 96%
    20:00 0°C° 0.2 mm 1 mps 617 mmHg 96%
    21:00 0°C° 0.2 mm 1 mps 616 mmHg 96%
    22:00 0°C° 0.2 mm 1 mps 616 mmHg 96%
    23:00 0°C° 0.1 mm 1 mps 616 mmHg 96%
    Show more